Hourly Data Report for September 24, 2017

All times are specified in Local Standard Time (LST). Add 1 hour to adjust for Daylight Saving Time where and when it is observed.

MISCOU ISLAND (AUT)
NEW BRUNSWICK

48°00'32.002" N
64°29'39.008" W
4.00 m
8103050
71719
WMI

Download Data

Hourly Data (September 2017)
Hourly Data Report for September 24, 2017
Temp Definition
°C
Dew Point Temp Definition
°C
Rel Hum Definition
%
Wind Dir Definition
10's deg

Wind Spd Definition
km/h
Visibility Definition
km
Stn Press Definition
kPa
Hmdx Definition


Wind Chill Definition


Weather Definition


TIME
00:00 14.1 10.7 80 6 9   101.77     LegendNANA
01:00 12.4 9.9 85 10 2   101.78     LegendNANA
02:00 10.2 8.6 90   0   101.78     LegendNANA
03:00 10.8 9.3 91 2 1   101.75     LegendNANA
04:00 12.8 11.5 92 5 4   101.73     LegendNANA
05:00 13.4 11.9 91 6 4   101.71     LegendNANA
06:00 13.7 12.1 90 3 7   101.79     LegendNANA
07:00 13.8 12.1 90 4 14   101.79     LegendNANA
08:00 13.5 11.7 89 6 16   101.77     LegendNANA
09:00 13.4 11.6 89 9 12   101.74     LegendNANA
10:00 13.7 11.7 88 10 15   101.64     LegendNANA
11:00 14.3 12.2 87 11 17   101.56     LegendNANA
12:00 14.7 12.5 87 10 13   101.55     LegendNANA
13:00 15.1 12.8 86 10 6   101.54     LegendNANA
14:00 15.2 12.8 86 13 9   101.49     LegendNANA
15:00 14.5 12.5 88 6 8   101.52     LegendNANA
16:00 14.1 12.5 90 5 7   101.51     LegendNANA
17:00 14.3 12.7 91 2 7   101.54     LegendNANA
18:00 14.0 12.6 91 36 9   101.62     LegendNANA
19:00 13.8 12.3 91 35 12   101.66     LegendNANA
20:00 13.9 12.3 91 35 12   101.71     LegendNANA
21:00 13.3 12.0 92 35 8   101.72     LegendNANA
22:00 13.2 12.1 93 1 8   101.73     LegendNANA
23:00 13.5 12.3 93 36 2   101.74     LegendNANA

Notes on Data Quality.

Legend

  • E = Estimated
  • M = Missing
  • NA = Not Available
  • ‡ = Partner data that is not subject to review by the National Climate Archives
Date modified: